Regional Weather Roundup
Issued by NWS

Home | Current Version | Previous Version | Graphics & Text | Print | Product List | Glossary On
Versions: 1 2 3 4 5 6 7 8 9 10 11 12 13 14 15 16 17 18 19 20 21 22 23 24 25 26 27 28 29 30 31 32 33 34 35 36 37 38 39 40 41 42 43 44 45 46 47 48 49 50
000
ASUS43 KOAX 251110
RWRNE

WEATHER ROUNDUP FOR NEBRASKA
NATIONAL WEATHER SERVICE OMAHA NE
500 AM CST THU DEC 25 2014

NOTES: SATELLITE DATA IS BEING USED TO AUGMENT CLOUD COVER ABOVE
       12000 FEET.
       "FAIR" INDICATES FEW OR NO CLOUDS BELOW 12,000 FEET WITH NO
       SIGNIFICANT WEATHER AND/OR OBSTRUCTIONS TO VISIBILITY.

  * THESE STATIONS DO NOT REPORT WEATHER SUCH AS RAIN...SNOW OR FOG.

NEZ001>004-019>022-054>056-251200-
NEBRASKA PANHANDLE

CITY           SKY/WX    TMP DP  RH WIND       PRES   REMARKS
SCOTTSBLUFF    CLOUDY    36  28  73 NE7       29.42F WCI  30
ALLIANCE       CLOUDY    29  26  89 CALM      29.42F
CHADRON        CLOUDY    32  25  75 NE14      29.46S WCI  22
KIMBALL        CLOUDY    38  24  55 N3        29.38F
SIDNEY         CLOUDY    34  25  69 N6        29.39F WCI  29
$$

NEZ057>060-069>072-079>082-251200-
SOUTHWEST NEBRASKA

CITY           SKY/WX    TMP DP  RH WIND       PRES   REMARKS
NORTH PLATTE   PTCLDY    23  19  85 E3        29.46S
IMPERIAL       PTCLDY    25  19  78 N9        29.40F WCI  15
LEXINGTON      MOCLDY    30  23  74 E5        29.48F WCI  25
MCCOOK         CLOUDY    28  22  78 NE8       29.44F WCI  20
OGALLALA       PTCLDY    20  18  93 NE3       29.44F
$$

NEZ005>010-023>029-035>040-094-251200-
NORTH CENTRAL NEBRASKA

CITY           SKY/WX    TMP DP  RH WIND       PRES   REMARKS
VALENTINE      CLOUDY    26  24  92 SW3       29.46R
AINSWORTH      CLOUDY    31  26  83 W3        29.46R
BROKEN BOW     CLOUDY    30  24  78 CALM      29.46F
O`NEILL        CLOUDY    30  27  87 S5        29.48F WCI  25
ORD            CLOUDY    28  24  85 SE5       29.49F WCI  23
THEDFORD       PTCLDY    31  24  76 S6        29.45S WCI  25
$$

NEZ041-046>049-061>064-073>077-083>087-251200-
SOUTH CENTRAL NEBRASKA

CITY           SKY/WX    TMP DP  RH WIND       PRES   REMARKS
GRAND ISLAND   CLOUDY    31  22  69 S7        29.54F WCI  24
AURORA         MOCLDY    32  24  72 S8        29.54F WCI  25
HASTINGS       CLOUDY    31  21  66 S10       29.52F WCI  22
HEBRON         MOCLDY    34  23  64 S7        29.59F WCI  28
HOLDREGE       MOCLDY    29  21  71 SE7       29.48F WCI  22
KEARNEY *      CLOUDY    28  19  69 SE6       29.51F WCI  22
YORK           CLOUDY    32  27  80 S10       29.57S WCI  24
$$

NEZ011>018-030>034-042>045-251200-
NORTHEAST NEBRASKA

CITY           SKY/WX    TMP DP  RH WIND       PRES   REMARKS
NORFOLK        CLOUDY    32  24  72 S8        29.54F WCI  25
ALBION         CLOUDY    30  23  74 SE5       29.53S WCI  25
BLAIR          CLOUDY    32  28  83 S13       29.61S WCI  22
COLUMBUS *     CLOUDY    34  21  60 SW7       29.58F WCI  28
FREMONT        CLOUDY    34  28  79 S7        29.60F WCI  28
TEKAMAH        MOCLDY    30  27  88 SE9       29.62S WCI  22
WAYNE          CLOUDY    30  26  83 S9        29.55F WCI  22
$$

NEZ050>053-065>068-078-088>093-251200-
SOUTHEAST NEBRASKA

CITY           SKY/WX    TMP DP  RH WIND       PRES   REMARKS
LINCOLN        CLOUDY    33  26  75 S10       29.62F WCI  25
OMAHA EPPLEY   CLOUDY    31  28  89 S12       29.65F WCI  22
BEATRICE       CLOUDY    33  26  76 S14       29.63F WCI  23
FALLS CITY     CLOUDY    32  26  78 S10       29.70F WCI  24
NEBRASKA CITY  CLOUDY    32  26  77 S14G20    29.66F WCI  22
PLATTSMOUTH    CLOUDY    32  26  78 S12       29.64S WCI  23
$$

NEZ044-045-051>053-067-251200-
OMAHA AREA

CITY           SKY/WX    TMP DP  RH WIND       PRES   REMARKS
OMAHA EPPLEY   CLOUDY    31  28  89 S12       29.65F WCI  22
BLAIR          CLOUDY    32  28  83 S13       29.61S WCI  22
FREMONT        CLOUDY    34  28  79 S7        29.60F WCI  28
MILLARD        CLOUDY    32  27  82 SE5       29.63F WCI  27
OFFUTT AFB     CLOUDY    31  27  85 SE5       29.64F WCI  26
PLATTSMOUTH    CLOUDY    32  26  78 S12       29.64S WCI  23
WAHOO          FAIR      32  27  80 S5        29.60F WCI  27
$$



USA.gov is the U.S. government's official web portal to all federal, state and local government web resources and services.